[[{"header":{"parameterUnit":"m.s-1","parameterCategory":1,"la1":30.2991,"la2":30.254,"lo1":-89.0895,"lo2":-89.0444,"dy":0.0017,"dx":0.0017,"nx":28,"ny":28,"refTime":"2025-07-19T09:00:00:Z","depth":0,"parameterNumber":2,"parameterNumberName":"U-component_of_WINDS"},"data":[0,0,0,0,0,0,0,0,0,0,0,0,0,0,0,0,0,0,0,0,0,0,0,0,0,0,0,0,0,0,0,0,0,0,0,0,0,0,0,0,0,0,0,0,0,0,0,0,0,0,0,0,0,0,0,0,0,0,1.9541,1.9541,0,1.9557,1.9557,1.9557,1.9509,1.9507,1.9506,1.9504,1.9521,1.9523,1.9525,0,0,0,0,0,0,0,0,0,0,0,0,0,1.9466,1.9467,1.9541,1.9541,1.9541,1.9557,1.9557,1.9558,1.9509,1.9507,1.9505,1.9504,1.9521,1.9523,1.9525,0,0,0,0,0,0,0,0,0,0,0,0,0,1.9492,1.9468,1.9541,1.9519,1.9517,1.9557,1.9557,1.9558,1.9509,1.9507,1.9505,1.9503,1.952,1.9523,1.9526,1.9588,0,0,1.9534,1.9535,0,0,0,0,0,0,0,0,1.949,1.9495,1.9522,1.952,1.9518,1.9529,1.9537,1.9568,1.951,1.9512,1.9504,1.9502,1.9526,1.9528,1.9536,1.9588,1.9589,1.9534,1.9536,1.9537,1.9538,0,0,0,0,0,0,0,1.9489,1.9494,1.9547,1.9522,1.952,1.9508,1.9509,1.9543,1.9531,1.9512,1.9508,1.9511,1.9524,1.9533,1.9536,1.9589,1.9534,1.9537,1.9538,1.9539,1.969,1.9692,0,0,0,0,0,0,1.949,1.9492,1.9547,1.9548,1.9499,1.9511,1.9512,1.9528,1.9531,1.9529,1.9513,1.9509,1.953,1.9533,1.9536,1.9606,1.9537,1.954,1.9541,1.9687,1.969,1.9693,0,0,0,0,0,0,1.9488,1.9495,1.9546,1.9519,1.9525,1.9514,1.9532,1.9529,1.9538,1.9532,1.9529,1.9524,1.9528,1.9532,1.9574,1.9606,1.9541,1.9543,1.9684,1.9688,1.9691,1.9748,0,0,0,0,0,0,1.9486,1.9495,1.9519,1.952,1.9526,1.9584,1.9534,1.9531,1.9543,1.9537,1.9542,1.954,1.9527,1.957,1.9577,1.9608,1.9546,1.9682,1.9686,1.969,1.9743,1.9753,1.9761,0,0,0,0,0,1.9484,1.9535,1.952,1.9527,1.9556,1.9586,1.959,1.9573,1.9546,1.9569,1.9564,1.954,1.9602,1.9575,1.9582,1.9615,1.9679,1.9685,1.969,1.9739,1.9751,1.9761,0,0,0,0,0,0,1.9539,1.9535,1.9519,1.9572,1.9579,1.9578,1.9607,1.9587,1.9603,1.9597,1.9576,1.9577,1.9622,1.9623,1.9593,1.9673,1.9636,1.9643,1.9671,1.9682,1.9691,1.9688,1.9548,0,0,0,0,0,1.9557,1.9582,1.9577,1.9625,1.9629,1.9618,1.963,1.9616,1.9624,1.9627,1.9626,1.9634,1.9654,1.9669,1.9688,1.9744,1.9742,1.9769,1.9779,1.9786,1.9791,1.9817,1.9828,1.971,1.971,1.971,0,0,1.9595,1.9596,1.9613,1.9635,1.964,1.9665,1.9621,1.965,1.9668,1.9632,1.967,1.9669,1.9677,1.9725,1.9746,1.9727,1.9824,1.9793,1.9799,1.98,1.9824,1.9835,1.9845,1.9713,1.9713,1.9712,0,0,1.9676,1.9681,1.9719,1.9723,1.973,1.9722,1.9731,1.9732,1.973,1.9768,1.974,1.9761,1.9799,1.9804,1.9812,1.9892,1.9869,1.99,1.9946,1.9971,1.9981,1.9989,2.0014,2.0024,1.9905,1.9906,1.9906,0,1.9722,1.9759,1.9741,1.9771,1.978,1.9748,1.9785,1.9791,1.9804,1.9811,1.979,1.9833,1.9837,1.9883,1.9903,1.9911,1.9919,1.9898,1.9981,1.9989,1.9996,2.002,2.003,1.9909,1.9909,1.9908,1.9908,0,1.9814,1.984,1.987,1.9881,1.9894,1.9928,1.9914,1.9929,1.9914,1.9908,1.9946,1.9948,1.9965,1.9976,1.9963,2.0021,2.0008,1.9985,1.9946,2.0011,2.0033,2.0043,1.9914,1.9913,1.9912,1.9911,0,0,1.993,1.9929,1.994,1.9943,1.9948,1.9967,1.9999,2.0015,2.0027,2.0038,2.0061,2.0093,2.007,2.0079,2.0066,2.0089,2.0148,2.0062,2.0061,2.0075,2.0208,2.0224,2.0235,2.0134,2.0136,2.0137,2.0207,0,2.0007,2.0059,2.0043,2.0096,2.0118,2.0086,2.0113,2.0118,2.0113,2.0131,2.0125,2.0146,2.0116,2.012,2.0142,2.0136,2.0174,2.0132,2.0154,2.0155,2.015,2.0247,2.0264,2.033,2.0216,2.0217,2.0218,0,2.0104,2.0115,2.017,2.0167,2.0176,2.0201,2.0212,2.023,2.0235,2.0229,2.0238,2.0219,2.0248,2.0212,2.025,2.0222,2.023,2.0229,2.0231,2.023,2.0189,2.0246,2.035,2.0359,2.0232,2.0231,2.023,0,2.0178,2.0208,2.0243,2.0248,2.0247,2.0264,2.0265,2.0267,2.0277,2.0288,2.0293,2.0308,2.0315,2.0327,2.0312,2.0287,2.0352,2.0315,2.0346,2.0346,2.0359,2.0358,2.0463,2.037,2.037,2.037,2.037,0,2.0263,2.0297,2.0276,2.0298,2.0334,2.0314,2.0351,2.0348,2.035,2.0369,2.0345,2.0364,2.0344,2.0361,2.035,2.0382,2.0387,2.0382,2.0378,2.0382,2.0382,2.0385,2.0379,2.0372,2.0372,2.0371,2.0371,0,2.0352,2.0339,2.0375,2.0371,2.037,2.0397,2.0393,2.0412,2.0404,2.043,2.0434,2.0423,2.0441,2.0428,2.0447,2.0439,2.048,2.0472,2.0478,2.0475,2.0506,2.0502,2.0614,2.0627,2.0528,2.0529,2.053,0,2.0406,2.043,2.0428,2.0439,2.044,2.0459,2.0468,2.045,2.046,2.0466,2.0484,2.05,2.0512,2.0543,2.0535,2.0549,2.0539,2.0577,2.0541,2.0543,2.0535,2.0533,2.0534,2.0584,2.0585,2.0586,2.0587,0,2.0502,2.0493,2.0507,2.0519,2.053,2.0538,2.0545,2.0555,2.0536,2.055,2.0567,2.0576,2.0595,2.061,2.0621,2.0621,2.06,2.0599,2.0606,2.0609,2.061,2.0607,2.0495,2.0595,2.0595,2.0594,2.0594,2.0593,2.0572,2.0591,2.0591,2.0607,2.0609,2.0615,2.0632,2.0626,2.064,2.0653,2.0642,2.0662,2.0664,2.0676,2.0679,2.0694,2.0678,2.069,2.0692,2.0694,2.0697,2.0611,2.0697,2.0696,2.0696,2.0696,2.0696,0,2.0663,2.0661,2.0676,2.0684,2.0696,2.0676,2.0681,2.0692,2.0711,2.0714,2.0725,2.0745,2.0759,2.0753,2.0765,2.0779,2.0769,2.0782,2.0779,2.0779,2.0712,2.0703,2.0789,2.0789,2.0789,2.0789,2.0789,2.0789,2.0712,2.0742,2.0734,2.0764,2.0762,2.0781,2.0786,2.0791,2.0793,2.0815,2.0826,2.0822,2.0821,2.0833,2.0845,2.0842,2.0847,2.0863,2.0857,2.0794,2.0784,2.0775,2.0766,2.0865,2.0865,2.0922,2.0922,2.0922]},{"header":{"parameterUnit":"m.s-1","parameterCategory":1,"la1":30.2991,"la2":30.254,"lo1":-89.0895,"lo2":-89.0444,"dy":0.0017,"dx":0.0017,"nx":28,"ny":28,"refTime":"2025-07-19T09:00:00:Z","depth":0,"parameterNumber":3,"parameterNumberName":"V-component_of_WINDS"},"data":[0,0,0,0,0,0,0,0,0,0,0,0,0,0,0,0,0,0,0,0,0,0,0,0,0,0,0,0,0,0,0,0,0,0,0,0,0,0,0,0,0,0,0,0,0,0,0,0,0,0,0,0,0,0,0,0,0,0,2.9995,2.9995,0,3.0072,3.0073,3.0074,3.0038,3.0036,3.0034,3.0032,3.0108,3.0112,3.0116,0,0,0,0,0,0,0,0,0,0,0,0,0,2.9812,2.9815,2.9994,2.9995,2.9996,3.0072,3.0073,3.0074,3.0038,3.0036,3.0034,3.0031,3.0107,3.0112,3.0116,0,0,0,0,0,0,0,0,0,0,0,0,0,2.989,2.9817,2.9994,2.9988,2.9988,3.0071,3.0073,3.0074,3.0039,3.0036,3.0033,3.003,3.0106,3.0111,3.0117,3.021,0,0,3.0134,3.0137,0,0,0,0,0,0,0,0,2.9886,2.9897,2.9988,2.9989,2.9989,3.0042,3.0036,3.012,3.004,3.002,3.0032,3.0029,3.0088,3.0095,3.0116,3.0213,3.0217,3.0135,3.0138,3.0141,3.0142,0,0,0,0,0,0,0,2.9881,2.9894,3.0025,2.9989,2.999,2.998,2.9988,3.0052,3.0069,3.0021,3.0019,3.0028,3.0088,3.0111,3.0118,3.0218,3.0135,3.014,3.0143,3.0145,3.0393,3.0396,0,0,0,0,0,0,2.9876,2.9889,3.0022,3.0027,2.9929,2.9985,2.9994,3.0028,3.0068,3.0072,3.0031,3.0027,3.0102,3.0111,3.012,3.023,3.0141,3.0146,3.0149,3.039,3.0393,3.0397,0,0,0,0,0,0,2.9872,2.9888,3.0019,2.9958,2.9974,2.9992,3.003,3.0031,3.0054,3.0076,3.0078,3.0051,3.01,3.0112,3.0188,3.0233,3.0149,3.0154,3.0386,3.0391,3.0395,3.0452,0,0,0,0,0,0,2.9867,2.9887,2.9924,2.9959,2.9977,3.0087,3.0033,3.0035,3.0064,3.0059,3.0095,3.0099,3.0099,3.0179,3.0193,3.0239,3.0158,3.0382,3.0388,3.0394,3.0447,3.0459,3.0469,0,0,0,0,0,2.9861,2.9937,2.9926,2.9942,3.0024,3.009,3.01,3.01,3.0068,3.0104,3.0118,3.0097,3.0226,3.0187,3.0203,3.0251,3.0379,3.0386,3.0393,3.0442,3.0456,3.0468,0,0,0,0,0,0,2.9906,2.9941,2.993,3.0019,3.0052,3.0084,3.0129,3.0116,3.0157,3.0151,3.0148,3.0156,3.0234,3.025,3.0207,3.0342,3.0297,3.0308,3.0329,3.0343,3.0354,3.0348,3.0163,0,0,0,0,0,2.9926,2.9978,3.0006,3.0082,3.0099,3.0112,3.014,3.0138,3.0171,3.0184,3.0203,3.0235,3.0282,3.0313,3.0358,3.0449,3.0455,3.0489,3.05,3.0509,3.0518,3.0565,3.058,3.042,3.042,3.042,0,0,2.9969,2.9995,3.0027,3.0092,3.0117,3.0169,3.0123,3.0181,3.0219,3.0192,3.0265,3.028,3.0315,3.0398,3.0435,3.0414,3.0564,3.0518,3.0525,3.0529,3.0574,3.0589,3.0602,3.0425,3.0424,3.0423,0,0,3.0073,3.0099,3.0164,3.019,3.0228,3.0236,3.0251,3.0285,3.0294,3.0367,3.0347,3.0392,3.0474,3.0499,3.0523,3.0635,3.0617,3.0649,3.0707,3.0753,3.0765,3.0776,3.0815,3.0829,3.0658,3.0659,3.0659,0,3.0121,3.02,3.0199,3.0259,3.0286,3.0265,3.033,3.0355,3.0406,3.0425,3.04,3.0501,3.0523,3.0611,3.0638,3.0658,3.0675,3.0645,3.0764,3.0775,3.0785,3.0822,3.0836,3.0662,3.0662,3.0661,3.0661,0,3.0256,3.0311,3.0359,3.0409,3.0443,3.0505,3.0512,3.0545,3.0539,3.0549,3.0622,3.0648,3.0696,3.0717,3.0712,3.0803,3.0788,3.0764,3.0719,3.0804,3.0838,3.0852,3.0667,3.0666,3.0665,3.0664,0,0,3.0391,3.0439,3.0457,3.0478,3.0518,3.056,3.062,3.0669,3.0697,3.0732,3.0781,3.085,3.0827,3.0854,3.0851,3.0891,3.0976,3.0861,3.0862,3.088,3.1076,3.1094,3.111,3.0964,3.0967,3.0969,3.1073,0,3.0497,3.0603,3.0604,3.0701,3.0751,3.073,3.0782,3.0811,3.0821,3.0864,3.0874,3.0923,3.089,3.0906,3.0945,3.0957,3.1015,3.095,3.1008,3.101,3.0999,3.1128,3.1147,3.1244,3.1086,3.1089,3.109,0,3.0635,3.0675,3.0778,3.0809,3.0829,3.0876,3.092,3.0961,3.0993,3.0997,3.1027,3.1017,3.1076,3.103,3.111,3.1065,3.1089,3.1099,3.1102,3.1107,3.1055,3.1135,3.1275,3.1289,3.1112,3.111,3.1109,0,3.0721,3.0801,3.0872,3.0891,3.093,3.0963,3.098,3.1009,3.1038,3.1075,3.1093,3.1137,3.1161,3.1194,3.1195,3.1162,3.1276,3.123,3.1279,3.1279,3.1304,3.1302,3.1448,3.1321,3.1321,3.132,3.132,0,3.0839,3.0902,3.0911,3.0955,3.1024,3.1023,3.1091,3.1105,3.1131,3.1176,3.116,3.1202,3.1202,3.1245,3.1246,3.1311,3.1322,3.1326,3.1325,3.1327,3.1326,3.1342,3.1334,3.1324,3.1323,3.1323,3.1322,0,3.0947,3.0956,3.1031,3.1062,3.1071,3.112,3.1145,3.1186,3.1194,3.1251,3.1264,3.1277,3.1325,3.133,3.1387,3.1388,3.1466,3.1459,3.1456,3.1454,3.1503,3.1497,3.1663,3.1684,3.1544,3.1546,3.1547,0,3.1021,3.1069,3.1104,3.1133,3.1153,3.12,3.1229,3.1229,3.126,3.1299,3.1334,3.1382,3.1419,3.1498,3.1511,3.1554,3.1547,3.1602,3.1553,3.1552,3.1546,3.1543,3.1547,3.1611,3.1613,3.1614,3.1615,0,3.1151,3.1152,3.1195,3.1239,3.1274,3.1309,3.1341,3.1366,3.137,3.1404,3.1455,3.1484,3.1542,3.1588,3.163,3.1646,3.1631,3.163,3.1644,3.1645,3.1641,3.1642,3.148,3.1626,3.1625,3.1624,3.1624,3.1623,3.1243,3.1284,3.1315,3.1362,3.1387,3.1417,3.1456,3.1469,3.1512,3.1559,3.1556,3.1611,3.164,3.1694,3.1713,3.1755,3.1736,3.1756,3.1761,3.1766,3.177,3.1635,3.1763,3.1762,3.1762,3.1762,3.1762,0,3.137,3.1389,3.1433,3.1479,3.1516,3.1499,3.1534,3.1565,3.1614,3.1643,3.168,3.1737,3.1781,3.1798,3.1842,3.1871,3.1865,3.1883,3.188,3.1883,3.1785,3.1768,3.1887,3.1887,3.1887,3.1887,3.1887,3.1887,3.1441,3.1509,3.1514,3.1593,3.1611,3.1665,3.1686,3.1713,3.1736,3.18,3.1837,3.1848,3.1871,3.1916,3.1956,3.1959,3.1975,3.1995,3.1996,3.1903,3.1891,3.1879,3.1863,3.1999,3.1999,3.209,3.2091,3.2092]}]]